This is the latest recevied weather packets stored in our database for station/object KB2SKP. If no packets are shown the sender has not sent any weather packets the latest 10 day(s).
| Time | Temp. | Humidity | Pressure | Rain* | Wind** | Luminosity | Snow |
|---|---|---|---|---|---|---|---|
| 1778090809 | 18.89° C | 86% | 1006.4 hPa | 0 mm | - | 127 W/m² | - |
| 1778090500 | 18.89° C | 87% | 1006.5 hPa | 0 mm | - | 128 W/m² | - |
| 1778090197 | 18.89° C | 88% | 1006.6 hPa | 0 mm | - | 122 W/m² | - |
| 1778089892 | 18.33° C | 89% | 1006.5 hPa | 0 mm | - | 118 W/m² | - |
| 1778089586 | 18.33° C | 88% | 1006.6 hPa | 0 mm | - | 114 W/m² | - |
| 1778089282 | 18.33° C | 90% | 1006.7 hPa | 0 mm | - | 116 W/m² | - |
| 1778088980 | 18.33° C | 90% | 1006.7 hPa | 0 mm | - | 115 W/m² | - |
| 1778088676 | 17.78° C | 90% | 1006.6 hPa | 0 mm | - | 110 W/m² | - |
| 1778088374 | 17.78° C | 90% | 1006.8 hPa | 0 mm | - | 113 W/m² | - |
| 1778088070 | 17.78° C | 91% | 1006.9 hPa | 0 mm | - | 112 W/m² | - |
| 1778087768 | 17.78° C | 91% | 1006.7 hPa | 0 mm | - | 116 W/m² | - |
| 1778087465 | 17.22° C | 91% | 1006.9 hPa | 0 mm | - | 117 W/m² | - |
| 1778087161 | 17.22° C | 92% | 1006.6 hPa | 0 mm | - | 109 W/m² | - |
| 1778086854 | 17.22° C | 92% | 1006.7 hPa | 0 mm | - | 113 W/m² | - |
| 1778086552 | 17.22° C | 92% | 1007.1 hPa | 0 mm | - | 117 W/m² | - |
| 1778086248 | 17.22° C | 92% | 1006.9 hPa | 0 mm | - | 121 W/m² | - |
| 1778085945 | 17.22° C | 93% | 1006.9 hPa | 0 mm | - | 110 W/m² | - |
| 1778085643 | 16.67° C | 93% | 1006.9 hPa | 0 mm | - | 92 W/m² | - |
| 1778085338 | 16.67° C | 93% | 1006.9 hPa | 0.51 mm | - | 73 W/m² | - |
| 1778085034 | 16.67° C | 93% | 1006.9 hPa | 0.51 mm | - | 84 W/m² | - |
| 1778084730 | 16.67° C | 93% | 1006.8 hPa | 0.51 mm | - | 88 W/m² | - |
| 1778084427 | 16.67° C | 93% | 1007.3 hPa | 1.27 mm | - | 87 W/m² | - |
| 1778084125 | 16.67° C | 93% | 1007.3 hPa | 0.51 mm | - | 77 W/m² | - |
| 1778083816 | 16.11° C | 93% | 1007.6 hPa | 1.27 mm | - | 82 W/m² | - |
| 1778083514 | 16.11° C | 92% | 1007.3 hPa | 1.78 mm | - | 61 W/m² | - |
* Rain latest hour (hover to see other rain measurements)
** Current wind speed in m/s (hover to see current wind gust speed)